| time (UTC) | temp F | wind direction | speed MPH | gust MPH | rain 1hr in | rain 24hr in | rain mn in | humidity % | barometer mb |
| 20260902220705 | 83 | 320 | 13.0 | 22.0 | 0.00 | 0.00 | 0.00 | 18 | 1015.5 |
| 20260902220204 | 82 | 304 | 12.0 | 17.0 | 0.00 | 0.00 | 0.00 | 17 | 1015.5 |
| 20260902215704 | 82 | 297 | 11.0 | 17.0 | 0.00 | 0.00 | 0.00 | 17 | 1015.7 |
| 20260902214704 | 83 | 275 | 9.0 | 15.0 | 0.00 | 0.00 | 0.00 | 16 | 1015.9 |
| 20260902214204 | 83 | 274 | 7.0 | 16.0 | 0.00 | 0.00 | 0.00 | 16 | 1015.9 |
| 20260902213704 | 82 | 312 | 9.0 | 16.0 | 0.00 | 0.00 | 0.00 | 17 | 1016.0 |
| 20260902213205 | 82 | 287 | 10.0 | 16.0 | 0.00 | 0.00 | 0.00 | 17 | 1016.1 |
| 20260902212204 | 82 | 299 | 7.0 | 14.0 | 0.00 | 0.00 | 0.00 | 17 | 1016.1 |
| 20260902211705 | 83 | 340 | 8.0 | 15.0 | 0.00 | 0.00 | 0.00 | 16 | 1016.2 |
| 20260902211204 | 82 | 327 | 8.0 | 15.0 | 0.00 | 0.00 | 0.00 | 16 | 1016.2 |
| 20260902210704 | 83 | 279 | 8.0 | 14.0 | 0.00 | 0.00 | 0.00 | 16 | 1016.2 |
| 20260902210204 | 82 | 304 | 8.0 | 16.0 | 0.00 | 0.00 | 0.00 | 16 | 1016.3 |
| 20260902205704 | 82 | 324 | 9.0 | 16.0 | 0.00 | 0.00 | 0.00 | 17 | 1016.4 |
| 20260902205204 | 82 | 281 | 9.0 | 16.0 | 0.00 | 0.00 | 0.00 | 17 | 1016.3 |
| 20260902204704 | 82 | 321 | 8.0 | 16.0 | 0.00 | 0.00 | 0.00 | 16 | 1016.3 |
| 20260902204204 | 82 | 317 | 9.0 | 16.0 | 0.00 | 0.00 | 0.00 | 17 | 1016.4 |
| 20260902203704 | 82 | 290 | 6.0 | 16.0 | 0.00 | 0.00 | 0.00 | 17 | 1016.4 |
| 20260902203205 | 82 | 250 | 4.0 | 19.0 | 0.00 | 0.00 | 0.00 | 17 | 1016.5 |
| 20260902202204 | 83 | 230 | 10.0 | 19.0 | 0.00 | 0.00 | 0.00 | 17 | 1016.5 |
| 20260902201707 | 84 | 358 | 9.0 | 18.0 | 0.00 | 0.00 | 0.00 | 15 | 1016.4 |
| 20260902201206 | 84 | 213 | 6.0 | 18.0 | 0.00 | 0.00 | 0.00 | 16 | 1016.3 |
| 20260902200704 | 84 | 144 | 4.0 | 11.0 | 0.00 | 0.00 | 0.00 | 17 | 1016.5 |
| 20260902200204 | 84 | 171 | 3.0 | 10.0 | 0.00 | 0.00 | 0.00 | 16 | 1016.7 |
| 20260902195205 | 83 | 157 | 3.0 | 10.0 | 0.00 | 0.00 | 0.00 | 14 | 1016.7 |
| 20260902194704 | 83 | 75 | 4.0 | 9.0 | 0.00 | 0.00 | 0.00 | 13 | 1016.8 |
| 20260902194204 | 83 | 72 | 4.0 | 9.0 | 0.00 | 0.00 | 0.00 | 14 | 1016.8 |
| 20260902193704 | 83 | 74 | 3.0 | 9.0 | 0.00 | 0.00 | 0.00 | 14 | 1016.8 |
| 20260902192705 | 82 | 105 | 3.0 | 9.0 | 0.00 | 0.00 | 0.00 | 15 | 1017.1 |
| 20260902191704 | 82 | 154 | 4.0 | 8.0 | 0.00 | 0.00 | 0.00 | 15 | 1017.2 |
| 20260902190204 | 80 | 200 | 2.0 | 6.0 | 0.00 | 0.00 | 0.00 | 16 | 1017.2 |
| 20260902185705 | 81 | 199 | 2.0 | 6.0 | 0.00 | 0.00 | 0.00 | 16 | 1017.3 |
| 20260902184704 | 80 | 203 | 2.0 | 6.0 | 0.00 | 0.00 | 0.00 | 17 | 1017.4 |
| 20260902184205 | 80 | 203 | 2.0 | 6.0 | 0.00 | 0.00 | 0.00 | 17 | 1017.4 |
| 20260902183704 | 80 | 203 | 2.0 | 5.0 | 0.00 | 0.00 | 0.00 | 17 | 1017.4 |
| 20260902182704 | 78 | 202 | 2.0 | 6.0 | 0.00 | 0.00 | 0.00 | 18 | 1017.4 |
| 20260902182204 | 78 | 203 | 2.0 | 6.0 | 0.00 | 0.00 | 0.00 | 18 | 1017.4 |
| 20260902181704 | 78 | 199 | 2.0 | 6.0 | 0.00 | 0.00 | 0.00 | 17 | 1017.5 |
| 20260902181204 | 78 | 195 | 2.0 | 4.0 | 0.00 | 0.00 | 0.00 | 17 | 1017.5 |
| 20260902180704 | 78 | 195 | 2.0 | 5.0 | 0.00 | 0.00 | 0.00 | 18 | 1017.5 |
| 20260902180204 | 78 | 196 | 2.0 | 6.0 | 0.00 | 0.00 | 0.00 | 18 | 1017.5 |
| 20260902175704 | 77 | 196 | 2.0 | 6.0 | 0.00 | 0.00 | 0.00 | 17 | 1017.6 |
| 20260902174705 | 76 | 201 | 2.0 | 9.0 | 0.00 | 0.00 | 0.00 | 18 | 1017.5 |
| 20260902173205 | 75 | 152 | 3.0 | 8.0 | 0.00 | 0.00 | 0.00 | 19 | 1017.4 |
| 20260902172706 | 75 | 141 | 2.0 | 8.0 | 0.00 | 0.00 | 0.00 | 18 | 1017.4 |
| 20260902172204 | 75 | 136 | 2.0 | 8.0 | 0.00 | 0.00 | 0.00 | 19 | 1017.4 |
| 20260902171715 | 74 | 135 | 2.0 | 7.0 | 0.00 | 0.00 | 0.00 | 19 | 1017.2 |
| 20260902171213 | 74 | 134 | 2.0 | 6.0 | 0.00 | 0.00 | 0.00 | 20 | 1017.3 |
| 20260902165204 | 73 | 142 | 2.0 | 6.0 | 0.00 | 0.00 | 0.00 | 20 | 1017.1 |
| 20260902164204 | 73 | 136 | 2.0 | 4.0 | 0.00 | 0.00 | 0.00 | 22 | 1017.1 |
| 20260902163705 | 73 | 134 | 2.0 | 4.0 | 0.00 | 0.00 | 0.00 | 22 | 1017.1 |
| 20260902163204 | 73 | 130 | 1.0 | 4.0 | 0.00 | 0.00 | 0.00 | 22 | 1017.1 |
| 20260902162705 | 73 | 128 | 2.0 | 4.0 | 0.00 | 0.00 | 0.00 | 22 | 1017.2 |
| 20260902162204 | 72 | 128 | 2.0 | 4.0 | 0.00 | 0.00 | 0.00 | 22 | 1017.3 |
| 20260902161704 | 72 | 118 | 1.0 | 3.0 | 0.00 | 0.00 | 0.00 | 23 | 1017.2 |
| 20260902161204 | 71 | 117 | 1.0 | 3.0 | 0.00 | 0.00 | 0.00 | 23 | 1017.2 |
| 20260902160205 | 69 | 117 | 1.0 | 4.0 | 0.00 | 0.00 | 0.00 | 24 | 1017.3 |
| 20260902155704 | 68 | 117 | 2.0 | 5.0 | 0.00 | 0.00 | 0.00 | 25 | 1017.3 |
| 20260902154204 | 68 | 117 | 2.0 | 6.0 | 0.00 | 0.00 | 0.00 | 25 | 1017.3 |
| 20260902153705 | 67 | 116 | 1.0 | 3.0 | 0.00 | 0.00 | 0.00 | 26 | 1017.3 |
| 20260902153205 | 67 | 116 | 1.0 | 4.0 | 0.00 | 0.00 | 0.00 | 27 | 1017.3 |
| 20260902152704 | 66 | 116 | 2.0 | 4.0 | 0.00 | 0.00 | 0.00 | 27 | 1017.3 |
| 20260902151704 | 65 | 116 | 3.0 | 6.0 | 0.00 | 0.00 | 0.00 | 28 | 1017.3 |
| 20260902151204 | 65 | 116 | 3.0 | 6.0 | 0.00 | 0.00 | 0.00 | 28 | 1017.3 |
| 20260902150705 | 65 | 358 | 3.0 | 6.0 | 0.00 | 0.00 | 0.00 | 27 | 1017.3 |
| 20260902150205 | 65 | 117 | 3.0 | 6.0 | 0.00 | 0.00 | 0.00 | 28 | 1017.3 |
| 20260902145236 | 65 | 323 | 1.0 | 3.0 | 0.00 | 0.00 | 0.00 | 28 | 1017.1 |
| 20260902144705 | 64 | 323 | 1.0 | 3.0 | 0.00 | 0.00 | 0.00 | 28 | 1017.0 |
| 20260902144204 | 64 | 324 | 1.0 | 3.0 | 0.00 | 0.00 | 0.00 | 29 | 1017.0 |
| 20260902143204 | 63 | 323 | 2.0 | 3.0 | 0.00 | 0.00 | 0.00 | 31 | 1017.0 |
| 20260902142705 | 62 | 323 | 1.0 | 3.0 | 0.00 | 0.00 | 0.00 | 33 | 1017.0 |
| 20260902142204 | 61 | 323 | 1.0 | 3.0 | 0.00 | 0.00 | 0.00 | 32 | 1017.0 |
| 20260902141704 | 60 | 323 | 2.0 | 4.0 | 0.00 | 0.00 | 0.00 | 33 | 1016.8 |
| 20260902141204 | 60 | 323 | 3.0 | 4.0 | 0.00 | 0.00 | 0.00 | 33 | 1016.7 |
| 20260902140704 | 58 | 323 | 3.0 | 4.0 | 0.00 | 0.00 | 0.00 | 34 | 1016.7 |
| 20260902140204 | 56 | 323 | 3.0 | 4.0 | 0.00 | 0.00 | 0.00 | 36 | 1016.7 |
| 20260902135704 | 55 | 324 | 2.0 | 3.0 | 0.00 | 0.00 | 0.00 | 37 | 1016.7 |
| 20260902134204 | 54 | 324 | 2.0 | 5.0 | 0.00 | 0.00 | 0.00 | 37 | 1016.7 |
| 20260902133705 | 54 | 324 | 3.0 | 6.0 | 0.00 | 0.00 | 0.00 | 38 | 1016.7 |
| 20260902133204 | 53 | 324 | 4.0 | 8.0 | 0.00 | 0.00 | 0.00 | 38 | 1016.6 |
| 20260902132704 | 53 | 324 | 5.0 | 8.0 | 0.00 | 0.00 | 0.00 | 39 | 1016.6 |
| 20260902132204 | 53 | 323 | 5.0 | 8.0 | 0.00 | 0.00 | 0.00 | 40 | 1016.7 |
| 20260902131704 | 53 | 322 | 4.0 | 8.0 | 0.00 | 0.00 | 0.00 | 41 | 1016.7 |
| 20260902131205 | 53 | 341 | 3.0 | 5.0 | 0.00 | 0.00 | 0.00 | 42 | 1016.6 |
| 20260902130705 | 54 | 341 | 4.0 | 5.0 | 0.00 | 0.00 | 0.00 | 41 | 1016.6 |
| 20260902130205 | 54 | 341 | 3.0 | 4.0 | 0.00 | 0.00 | 0.00 | 41 | 1016.6 |
| 20260902125205 | 56 | 341 | 2.0 | 5.0 | 0.00 | 0.00 | 0.00 | 38 | 1016.7 |
| 20260902124705 | 56 | 341 | 3.0 | 5.0 | 0.00 | 0.00 | 0.00 | 38 | 1016.7 |
| 20260902124204 | 56 | 341 | 4.0 | 5.0 | 0.00 | 0.00 | 0.00 | 37 | 1016.8 |
| 20260902123704 | 57 | 341 | 3.0 | 5.0 | 0.00 | 0.00 | 0.00 | 38 | 1016.6 |
| 20260902123204 | 57 | 341 | 4.0 | 6.0 | 0.00 | 0.00 | 0.00 | 38 | 1016.7 |
| 20260902122205 | 56 | 341 | 3.0 | 5.0 | 0.00 | 0.00 | 0.00 | 39 | 1016.6 |
| 20260902121704 | 55 | 340 | 2.0 | 4.0 | 0.00 | 0.00 | 0.00 | 40 | 1016.5 |
| 20260902121204 | 56 | 340 | 1.0 | 3.0 | 0.00 | 0.00 | 0.00 | 41 | 1016.4 |
| 20260902120705 | 56 | 340 | 2.0 | 3.0 | 0.00 | 0.00 | 0.00 | 42 | 1016.4 |
| 20260902120204 | 57 | 340 | 2.0 | 3.0 | 0.00 | 0.00 | 0.00 | 42 | 1016.3 |
| 20260902115204 | 57 | 340 | 2.0 | 4.0 | 0.00 | 0.00 | 0.00 | 42 | 1016.4 |
| 20260902114704 | 57 | 340 | 2.0 | 4.0 | 0.00 | 0.00 | 0.00 | 42 | 1016.4 |
| 20260902114204 | 57 | 340 | 3.0 | 4.0 | 0.00 | 0.00 | 0.00 | 42 | 1016.4 |
| 20260902113704 | 58 | 340 | 2.0 | 4.0 | 0.00 | 0.00 | 0.00 | 42 | 1016.4 |
| 20260902113204 | 57 | 340 | 1.0 | 9.0 | 0.00 | 0.00 | 0.00 | 43 | 1016.4 |
| 20260902112704 | 58 | 340 | 2.0 | 9.0 | 0.00 | 0.00 | 0.00 | 43 | 1016.5 |
| 20260902112204 | 58 | 340 | 5.0 | 9.0 | 0.00 | 0.00 | 0.00 | 43 | 1016.5 |
| 20260902111704 | 58 | 346 | 5.0 | 9.0 | 0.00 | 0.00 | 0.00 | 42 | 1016.5 |
| 20260902111204 | 57 | 315 | 6.0 | 9.0 | 0.00 | 0.00 | 0.00 | 43 | 1016.5 |
| 20260902110704 | 56 | 309 | 6.0 | 9.0 | 0.00 | 0.00 | 0.00 | 44 | 1016.4 |
| 20260902105704 | 55 | 314 | 4.0 | 6.0 | 0.00 | 0.00 | 0.00 | 41 | 1016.5 |
| 20260902105204 | 54 | 314 | 5.0 | 6.0 | 0.00 | 0.00 | 0.00 | 41 | 1016.4 |
| 20260902104704 | 54 | 319 | 5.0 | 6.0 | 0.00 | 0.00 | 0.00 | 40 | 1016.5 |
| 20260902104206 | 53 | 330 | 4.0 | 6.0 | 0.00 | 0.00 | 0.00 | 41 | 1016.6 |
| 20260902103204 | 54 | 323 | 4.0 | 4.0 | 0.00 | 0.00 | 0.00 | 41 | 1016.6 |
| 20260902102704 | 55 | 321 | 2.0 | 4.0 | 0.00 | 0.00 | 0.00 | 40 | 1016.6 |
| 20260902101704 | 56 | 321 | 2.0 | 4.0 | 0.00 | 0.00 | 0.00 | 38 | 1016.7 |
| 20260902101204 | 56 | 321 | 2.0 | 4.0 | 0.00 | 0.00 | 0.00 | 39 | 1016.7 |
| 20260902100705 | 55 | 321 | 1.0 | 4.0 | 0.00 | 0.00 | 0.00 | 41 | 1016.7 |
| 20260902100206 | 54 | 321 | 2.0 | 4.0 | 0.00 | 0.00 | 0.00 | 41 | 1016.8 |
| 20260902095704 | 54 | 321 | 3.0 | 4.0 | 0.00 | 0.00 | 0.00 | 44 | 1016.8 |
| 20260902095205 | 54 | 321 | 3.0 | 4.0 | 0.00 | 0.00 | 0.00 | 45 | 1016.7 |
| 20260902094704 | 54 | 321 | 2.0 | 4.0 | 0.00 | 0.00 | 0.00 | 45 | 1016.8 |
| 20260902093705 | 54 | 321 | 3.0 | 4.0 | 0.00 | 0.00 | 0.00 | 45 | 1016.7 |
| 20260902093204 | 55 | 321 | 2.0 | 4.0 | 0.00 | 0.00 | 0.00 | 45 | 1016.7 |
| 20260902092704 | 54 | 321 | 3.0 | 4.0 | 0.00 | 0.00 | 0.00 | 45 | 1016.7 |
| 20260902091704 | 55 | 321 | 2.0 | 4.0 | 0.00 | 0.00 | 0.00 | 46 | 1016.7 |
| 20260902091204 | 55 | 321 | 2.0 | 4.0 | 0.00 | 0.00 | 0.00 | 46 | 1016.6 |
| 20260902090704 | 56 | 321 | 1.0 | 3.0 | 0.00 | 0.00 | 0.00 | 46 | 1016.7 |
| 20260902090204 | 56 | 321 | 2.0 | 3.0 | 0.00 | 0.00 | 0.00 | 47 | 1016.6 |
| 20260902085706 | 56 | 321 | 2.0 | 3.0 | 0.00 | 0.00 | 0.00 | 48 | 1016.7 |
| 20260902085204 | 56 | 321 | 2.0 | 5.0 | 0.00 | 0.00 | 0.00 | 49 | 1016.7 |
| 20260902084705 | 56 | 321 | 2.0 | 5.0 | 0.00 | 0.00 | 0.00 | 49 | 1016.8 |
| 20260902084205 | 56 | 321 | 3.0 | 5.0 | 0.00 | 0.00 | 0.00 | 49 | 1017.0 |
| 20260902083705 | 56 | 321 | 2.0 | 4.0 | 0.00 | 0.00 | 0.00 | 49 | 1016.8 |
| 20260902083204 | 56 | 321 | 2.0 | 4.0 | 0.00 | 0.00 | 0.00 | 50 | 1017.0 |
| 20260902082704 | 57 | 321 | 2.0 | 4.0 | 0.00 | 0.00 | 0.00 | 52 | 1017.0 |
| 20260902082204 | 58 | 321 | 2.0 | 3.0 | 0.00 | 0.00 | 0.00 | 51 | 1017.0 |
| 20260902081706 | 58 | 321 | 2.0 | 4.0 | 0.00 | 0.00 | 0.00 | 51 | 1017.0 |
| 20260902081204 | 59 | 321 | 2.0 | 4.0 | 0.00 | 0.00 | 0.00 | 50 | 1017.0 |
| 20260902080705 | 60 | 321 | 2.0 | 4.0 | 0.00 | 0.00 | 0.00 | 50 | 1017.0 |
| 20260902075704 | 60 | 321 | 3.0 | 5.0 | 0.00 | 0.00 | 0.00 | 48 | 1017.0 |
| 20260902075205 | 61 | 321 | 3.0 | 6.0 | 0.00 | 0.00 | 0.00 | 48 | 1017.0 |
| 20260902074704 | 61 | 321 | 4.0 | 6.0 | 0.00 | 0.00 | 0.00 | 47 | 1017.0 |
| 20260902074204 | 61 | 321 | 4.0 | 6.0 | 0.00 | 0.00 | 0.00 | 47 | 1017.0 |
| 20260902073706 | 60 | 321 | 4.0 | 5.0 | 0.00 | 0.00 | 0.00 | 48 | 1016.8 |
| 20260902073204 | 60 | 323 | 3.0 | 5.0 | 0.00 | 0.00 | 0.00 | 49 | 1017.0 |
| 20260902072704 | 60 | 323 | 3.0 | 5.0 | 0.00 | 0.00 | 0.00 | 48 | 1016.8 |
| 20260902072204 | 60 | 323 | 3.0 | 4.0 | 0.00 | 0.00 | 0.00 | 48 | 1016.8 |
| 20260902071704 | 60 | 323 | 2.0 | 4.0 | 0.00 | 0.00 | 0.00 | 48 | 1016.8 |
| 20260902071204 | 60 | 323 | 2.0 | 4.0 | 0.00 | 0.00 | 0.00 | 49 | 1016.7 |
| 20260902070705 | 61 | 323 | 2.0 | 4.0 | 0.00 | 0.00 | 0.00 | 50 | 1016.7 |
| 20260902070204 | 61 | 323 | 2.0 | 4.0 | 0.00 | 0.00 | 0.00 | 50 | 1016.7 |
| 20260902065704 | 62 | 323 | 2.0 | 4.0 | 0.00 | 0.00 | 0.00 | 50 | 1016.7 |
| 20260902065204 | 62 | 323 | 2.0 | 9.0 | 0.00 | 0.00 | 0.00 | 50 | 1016.7 |
| 20260902064204 | 62 | 323 | 5.0 | 12.0 | 0.00 | 0.00 | 0.00 | 50 | 1016.6 |
| 20260902063704 | 63 | 323 | 6.0 | 12.0 | 0.00 | 0.00 | 0.00 | 50 | 1016.6 |
| 20260902062704 | 63 | 323 | 7.0 | 17.0 | 0.00 | 0.00 | 0.00 | 50 | 1016.5 |
| 20260902062204 | 63 | 325 | 7.0 | 17.0 | 0.00 | 0.00 | 0.00 | 51 | 1016.6 |
| 20260902061704 | 63 | 330 | 9.0 | 17.0 | 0.00 | 0.00 | 0.00 | 51 | 1016.5 |
| 20260902060704 | 63 | 327 | 9.0 | 13.0 | 0.00 | 0.00 | 0.00 | 52 | 1016.5 |
| 20260902060204 | 63 | 334 | 9.0 | 14.0 | 0.00 | 0.00 | 0.00 | 51 | 1016.5 |
| 20260902055704 | 64 | 329 | 8.0 | 15.0 | 0.00 | 0.00 | 0.00 | 51 | 1016.5 |
| 20260902054705 | 64 | 315 | 10.0 | 15.0 | 0.00 | 0.00 | 0.00 | 52 | 1016.4 |
| 20260902053705 | 64 | 336 | 9.0 | 15.0 | 0.00 | 0.00 | 0.00 | 51 | 1016.4 |
| 20260902053204 | 64 | 309 | 9.0 | 13.0 | 0.00 | 0.00 | 0.00 | 50 | 1016.4 |
| 20260902052704 | 65 | 330 | 9.0 | 14.0 | 0.00 | 0.00 | 0.00 | 49 | 1016.5 |
| 20260902052204 | 65 | 332 | 9.0 | 14.0 | 0.00 | 0.00 | 0.00 | 48 | 1016.4 |
| 20260902051704 | 65 | 323 | 9.0 | 16.0 | 0.00 | 0.00 | 0.00 | 48 | 1016.4 |
| 20260902051204 | 65 | 321 | 9.0 | 16.0 | 0.00 | 0.00 | 0.00 | 49 | 1016.3 |
| 20260902050704 | 65 | 301 | 10.0 | 16.0 | 0.00 | 0.00 | 0.00 | 49 | 1016.3 |
| 20260902050205 | 65 | 314 | 10.0 | 16.0 | 0.00 | 0.00 | 0.00 | 49 | 1016.2 |
| 20260902045704 | 65 | 319 | 11.0 | 16.0 | 0.00 | 0.00 | 0.00 | 50 | 1016.3 |
| 20260902045204 | 65 | 307 | 11.0 | 16.0 | 0.00 | 0.00 | 0.00 | 50 | 1016.3 |
| 20260902044705 | 65 | 302 | 11.0 | 16.0 | 0.00 | 0.00 | 0.00 | 48 | 1016.3 |
| 20260902044204 | 66 | 316 | 11.0 | 14.0 | 0.00 | 0.00 | 0.00 | 46 | 1016.3 |
| 20260902043704 | 66 | 313 | 10.0 | 14.0 | 0.00 | 0.00 | 0.00 | 45 | 1016.3 |
| 20260902043204 | 66 | 315 | 10.0 | 14.0 | 0.00 | 0.00 | 0.00 | 44 | 1016.2 |
| 20260902042704 | 67 | 320 | 10.0 | 14.0 | 0.00 | 0.00 | 0.00 | 42 | 1016.2 |
| 20260902042204 | 67 | 313 | 10.0 | 14.0 | 0.00 | 0.00 | 0.00 | 41 | 1016.1 |
| 20260902041704 | 67 | 311 | 10.0 | 14.0 | 0.00 | 0.00 | 0.00 | 40 | 1016.1 |
| 20260902041204 | 67 | 313 | 9.0 | 14.0 | 0.00 | 0.00 | 0.00 | 38 | 1016.1 |
| 20260902040704 | 67 | 306 | 8.0 | 12.0 | 0.00 | 0.00 | 0.00 | 37 | 1016.1 |
| 20260902040204 | 68 | 316 | 7.0 | 14.0 | 0.00 | 0.00 | 0.00 | 37 | 1016.1 |
| 20260902035704 | 68 | 313 | 8.0 | 14.0 | 0.00 | 0.00 | 0.00 | 36 | 1016.0 |
| 20260902034704 | 69 | 298 | 9.0 | 14.0 | 0.00 | 0.00 | 0.00 | 34 | 1015.9 |
| 20260902033704 | 69 | 315 | 8.0 | 15.0 | 0.00 | 0.00 | 0.00 | 31 | 1015.7 |
| 20260902033204 | 69 | 315 | 8.0 | 15.0 | 0.00 | 0.00 | 0.00 | 30 | 1015.5 |
| 20260902032704 | 70 | 307 | 9.0 | 14.0 | 0.00 | 0.00 | 0.00 | 29 | 1015.4 |
| 20260902032204 | 70 | 334 | 9.0 | 14.0 | 0.00 | 0.00 | 0.00 | 30 | 1015.4 |
| 20260902031704 | 70 | 323 | 7.0 | 12.0 | 0.00 | 0.00 | 0.00 | 30 | 1015.3 |
| 20260902030704 | 72 | 289 | 3.0 | 9.0 | 0.00 | 0.00 | 0.00 | 28 | 1015.3 |
| 20260902030204 | 73 | 288 | 4.0 | 10.0 | 0.00 | 0.00 | 0.00 | 27 | 1015.3 |
| 20260902025204 | 73 | 310 | 5.0 | 10.0 | 0.00 | 0.00 | 0.00 | 24 | 1015.3 |
| 20260902024704 | 74 | 292 | 5.0 | 12.0 | 0.00 | 0.00 | 0.00 | 25 | 1015.2 |
| 20260902024204 | 74 | 288 | 7.0 | 12.0 | 0.00 | 0.00 | 0.00 | 26 | 1015.2 |
| 20260902023704 | 74 | 278 | 7.0 | 12.0 | 0.00 | 0.00 | 0.00 | 25 | 1015.1 |
| 20260902023204 | 75 | 302 | 4.0 | 7.0 | 0.00 | 0.00 | 0.00 | 24 | 1015.1 |
| 20260902022704 | 75 | 296 | 2.0 | 7.0 | 0.00 | 0.00 | 0.00 | 24 | 1015.0 |
| 20260902021705 | 76 | 358 | 4.0 | 10.0 | 0.00 | 0.00 | 0.00 | 24 | 1015.0 |
| 20260902021204 | 76 | 358 | 6.0 | 14.0 | 0.00 | 0.00 | 0.00 | 23 | 1014.9 |
| 20260902020704 | 77 | 358 | 8.0 | 14.0 | 0.00 | 0.00 | 0.00 | 22 | 1014.9 |
| 20260902020204 | 77 | 358 | 9.0 | 14.0 | 0.00 | 0.00 | 0.00 | 22 | 1015.0 |
| 20260902015704 | 78 | 358 | 8.0 | 11.0 | 0.00 | 0.00 | 0.00 | 22 | 1015.0 |
| 20260902015203 | 78 | 358 | 8.0 | 14.0 | 0.00 | 0.00 | 0.00 | 21 | 1014.9 |
| 20260902014704 | 78 | 358 | 8.0 | 15.0 | 0.00 | 0.00 | 0.00 | 20 | 1015.0 |
| 20260902014205 | 78 | 358 | 8.0 | 15.0 | 0.00 | 0.00 | 0.00 | 20 | 1015.0 |
| 20260902013704 | 79 | 358 | 8.0 | 15.0 | 0.00 | 0.00 | 0.00 | 20 | 1015.0 |
| 20260902013204 | 79 | 358 | 8.0 | 16.0 | 0.00 | 0.00 | 0.00 | 18 | 1015.0 |
| 20260902012704 | 80 | 358 | 9.0 | 16.0 | 0.00 | 0.00 | 0.00 | 17 | 1014.9 |
| 20260902012205 | 80 | 319 | 10.0 | 16.0 | 0.00 | 0.00 | 0.00 | 17 | 1014.9 |
| 20260902005704 | 81 | 311 | 11.0 | 19.0 | 0.00 | 0.00 | 0.00 | 15 | 1014.9 |
| 20260902005204 | 81 | 321 | 11.0 | 19.0 | 0.00 | 0.00 | 0.00 | 14 | 1014.7 |
| 20260902004704 | 81 | 314 | 11.0 | 19.0 | 0.00 | 0.00 | 0.00 | 15 | 1014.9 |
| 20260902004220 | 82 | 298 | 11.0 | 19.0 | 0.00 | 0.00 | 0.00 | 14 | 1014.9 |
| 20260902003704 | 82 | 322 | 12.0 | 19.0 | 0.00 | 0.00 | 0.00 | 13 | 1015.0 |
| 20260902002704 | 83 | 337 | 10.0 | 15.0 | 0.00 | 0.00 | 0.00 | 13 | 1015.0 |
| 20260902002205 | 83 | 322 | 9.0 | 15.0 | 0.00 | 0.00 | 0.00 | 14 | 1015.0 |
| 20260902001704 | 83 | 294 | 8.0 | 16.0 | 0.00 | 0.00 | 0.00 | 14 | 1015.0 |
| 20260902001204 | 83 | 322 | 9.0 | 17.0 | 0.00 | 0.00 | 0.00 | 14 | 1015.0 |
| 20260902000704 | 83 | 319 | 10.0 | 17.0 | 0.00 | 0.00 | 0.00 | 14 | 1015.0 |
| 20260902000204 | 83 | 353 | 11.0 | 17.0 | 0.00 | 0.00 | 0.00 | 11 | 1015.0 |
| 20260901235704 | 83 | 3 | 10.0 | 16.0 | 0.00 | 0.00 | 0.00 | 10 | 1015.0 |
| 20260901235206 | 84 | 346 | 10.0 | 16.0 | 0.00 | 0.00 | 0.00 | 10 | 1015.0 |
| 20260901234704 | 84 | 339 | 10.0 | 16.0 | 0.00 | 0.00 | 0.00 | 10 | 1015.0 |
| 20260901234204 | 84 | 3 | 10.0 | 19.0 | 0.00 | 0.00 | 0.00 | 12 | 1015.0 |
| 20260901233206 | 84 | 22 | 11.0 | 19.0 | 0.00 | 0.00 | 0.00 | 11 | 1015.0 |
| 20260901232704 | 84 | 10 | 11.0 | 17.0 | 0.00 | 0.00 | 0.00 | 10 | 1015.0 |
| 20260901232204 | 84 | 9 | 9.0 | 17.0 | 0.00 | 0.00 | 0.00 | 10 | 1015.1 |
| 20260901231704 | 84 | 35 | 9.0 | 17.0 | 0.00 | 0.00 | 0.00 | 10 | 1015.0 |
| 20260901231205 | 84 | 306 | 10.0 | 17.0 | 0.00 | 0.00 | 0.00 | 15 | 1015.1 |
| 20260901230704 | 84 | 309 | 11.0 | 21.0 | 0.00 | 0.00 | 0.00 | 16 | 1015.1 |
| 20260901230204 | 83 | 321 | 11.0 | 21.0 | 0.00 | 0.00 | 0.00 | 16 | 1015.1 |
| 20260901225206 | 84 | 313 | 10.0 | 18.0 | 0.00 | 0.00 | 0.00 | 17 | 1015.0 |
| 20260901224704 | 84 | 304 | 11.0 | 19.0 | 0.00 | 0.00 | 0.00 | 16 | 1015.1 |
| 20260901224205 | 84 | 348 | 11.0 | 19.0 | 0.00 | 0.00 | 0.00 | 17 | 1015.1 |
| 20260901223704 | 84 | 331 | 12.0 | 19.0 | 0.00 | 0.00 | 0.00 | 17 | 1015.2 |
| 20260901223206 | 83 | 288 | 12.0 | 19.0 | 0.00 | 0.00 | 0.00 | 17 | 1015.2 |
| 20260901222704 | 84 | 316 | 11.0 | 19.0 | 0.00 | 0.00 | 0.00 | 16 | 1015.2 |
| 20260901222204 | 84 | 344 | 10.0 | 19.0 | 0.00 | 0.00 | 0.00 | 17 | 1015.2 |
| 20260901221204 | 84 | 333 | 11.0 | 22.0 | 0.00 | 0.00 | 0.00 | 17 | 1015.3 |